Location: Newark
(47.0000°N, 7.6833°E)
Time: 19:24:06
(UTC+00:00)

Envisat - Pass Details

Date: 27 August 2019
Orbit: 764 x 766 km, 98.1° (Epoch: 19 October)

Event Time Altitude Azimuth Distance (km) Brightness Sun altitude
Rises 19:15:10 0° 220° (SW) 3,223 6.4 -9.7°
Reaches altitude 10° 19:19:01 10° 250° (WSW) 2,304 6.1 -10.3°
Maximum altitude 19:21:01 12° 274° (W) 2,156 6.5 -10.6°
Drops below altitude 10° 19:23:01 10° 297° (WNW) 2,311 7.1 -10.9°
Sets 19:26:56 0° 328° (NNW) 3,245 7.4 -11.5°
